User: anonymous   Login
Location: Unspecified
(0.0000°N, 0.0000°E)
Time: 02:23:53
(UTC+01:00)
Language:

ARIANE 5 R/B - Orbit

View from above orbital plane
View from above orbital plane
View from above satellite
View from above satellite

Ground track
Ground track

The orbit data is extracted from the following two-line orbital elements,

1 28886U 05041C   16042.49126271 -.00000006  00000-0  00000+0 0  9993
2 28886   7.4714 188.7092 7196274  93.1791 343.5467  2.24333274 84709
Epoch (UTC): 11 February 2016 11:47:25
Eccentricity: 0.7196274
inclination: 7.4714°
perigee height: 533 km
apogee height: 36009 km
right ascension of ascending node: 188.7092°
argument of perigee: 93.1791°
revolutions per day: 2.24333274
mean anomaly at epoch: 343.5467°
orbit number at epoch: 8470

The dashed part of the orbit path shows where the satellite is in the earth's shadow,  

DLR